Terminal Aerodrome Forecast
Issued by NWS Tampa Bay Area, FL

Home | Current Version | Previous Version | Text Only | Print | Product List | Glossary On
Versions: 1 2 3 4 5 6 7 8 9 10 11 12 13 14 15 16 17 18 19 20 21 22 23 24 25 26
133
FTUS42 KTBW 221508 AAB
TAFTPA
TAF AMD
KTPA 221508Z 2215/2312 11010G15KT P6SM SHRA VCTS SCT020CB BKN070
     FM222300 07007KT P6SM VCSH FEW015 SCT025 OVC050
     FM230300 06005KT P6SM BKN030 OVC060
     FM230800 02005KT P6SM VCSH SCT010 BKN020 BKN100=

USA.gov is the U.S. government's official web portal to all federal, state and local government web resources and services.